Location: Faicchio
(41.2833°N, 14.4833°E)
Time: 05:53:00
(UTC+00:00)

USA 81 - Pass Details

Date: 15 June 2025
Orbit: 782 x 786 km, 85.0° (Epoch: 16 July)

Event Time Altitude Azimuth Distance (km) Brightness Sun altitude
Exits shadow 00:40:40 43° 172° (S) 1,094 4.4 -21.5°
Maximum altitude 00:42:26 80° 93° (E) 804 4.0 -21.4°
Drops below altitude 10° 00:47:43 10° 7° (N) 2,353 7.5 -21.0°
Sets 00:50:05 0° 6° (N) 3,286 8.5 -20.8°
